Wetbulb
46.39 42.00 39.31 42.95 44.84 43.59 43.72 41.88 41.56 45.00 48.44 46.91 46.75 47.56 50.16 52.73 52.48 52.46 54.07 54.67 55.97 57.09 59.23 60.61 62.00 62.78 63.06 67.57 71.93 76.36 74.40 75.00 74.02 73.98 72.58 72.82 72.36 72.05 73.39 72.75 73.45 72.72 72.25 72.02
42.48 39.14 43.09 43.28 42.62 41.95 41.47 39.14 39.53 43.28 46.93 47.34 45.64 45.73 49.53 51.18 51.98 53.29 54.11 54.32 55.39 56.74 59.13 61.61 61.84 63.15 64.93 69.18 72.99 74.49 75.75 76.65 74.44 74.45 73.09 74.23 73.31 72.96 73.18 73.43 75.26 72.78 71.93 72.31
38.60 40.87 43.66 42.12 40.90 39.45 39.98 38.08 39.17 39.30 43.33 45.07 43.72 42.57 45.68 49.45 51.32 52.15 53.57 55.27 56.23 57.15 57.83 59.75 61.71 63.97 65.98 65.87 68.60 72.38 76.79 76.33 75.27 75.12 74.35 74.65 74.25 74.58 72.50 73.18 73.78 73.82 73.60 74.03
41.03 43.57 41.77 40.58 39.23 40.38 36.12 41.11 40.19 38.72 37.89 33.32 43.70 33.96 43.40 47.53 49.03 50.58 52.03 53.13 54.03 55.25 57.48 58.93 60.32 62.52 64.88 65.78 67.43 74.22 75.46 76.67 76.81 75.78 74.45 72.40 72.44 71.02 72.02 72.72 73.57 74.20 74.73 74.73
39.62 41.13 40.54 39.31 39.71 41.26 37.73 41.40 39.40 39.11 37.36 38.24 38.44 36.17 41.27 46.82 46.05 49.06 51.13 52.59 53.96 55.22 55.84 56.74 57.64 59.95 62.88 65.41 64.77 69.37 75.65 76.49 76.44 76.23 74.88 72.83 73.23 72.64 73.67 73.15 74.21 73.83 74.69 74.29
41.99 45.26 42.95 42.07 43.22 42.55 43.13 40.68 40.18 39.87 37.38 29.81 36.26 35.89 37.15 42.09 45.95 48.15 51.37 53.18 54.23 55.05 55.54 56.77 58.38 59.53 60.16 63.20 63.83 64.77 75.23 74.93 76.70 76.25 75.51 73.65 72.51 73.01 72.49 72.34 72.48 72.63 73.25 73.83
40.24 41.18 44.24 43.96 40.58 42.12 40.59 36.37 29.66 28.23 28.96 28.51 37.98 35.96 38.85 45.59 48.30 49.07 50.62 52.29 54.05 55.40 55.56 56.76 57.13 57.44 59.01 60.05 63.30 64.10 71.91 73.71 75.82 75.75 74.85 74.65 74.02 74.09 72.77 72.92 72.06 72.03 72.55 73.01
33.46 31.75 40.04 44.12 41.01 38.34 39.44 37.59 30.04 23.39 25.64 29.77 38.02 33.36 39.29 47.67 50.57 51.73 52.34 52.84 53.94 54.59 55.76 56.58 57.53 58.13 58.21 59.10 62.41 64.11 65.42 73.34 75.45 75.19 75.26 74.75 74.55 73.35 74.45 73.74 72.68 72.72 73.19 73.42
32.44 33.19 42.46 43.68 44.48 43.03 38.11 34.57 39.23 31.43 32.68 30.57 34.91 39.43 44.45 47.56 47.88 49.66 51.06 51.81 53.02 54.30 56.86 57.34 57.71 58.55 58.89 59.11 61.47 63.89 63.30 73.57 75.25 75.66 75.41 74.91 74.68 74.74 73.46 74.25 74.20 72.75 73.94 73.63
37.62 30.46 40.16 42.88 44.33 44.31 41.56 42.90 33.82 35.26 25.74 25.14 32.55 34.99 36.83 43.40 46.11 48.73 49.60 51.05 53.39 55.14 54.83 56.06 57.07 59.14 59.89 59.93 61.69 64.28 64.75 69.53 74.54 75.75 75.38 74.92 74.24 75.01 73.88 74.28 73.03 72.37 73.25 73.30
40.65 36.05 35.46 39.63 38.40 36.82 39.93 37.71 38.71 37.78 32.95 28.17 26.94 31.99 40.97 43.58 45.96 48.84 49.44 51.14 53.90 54.46 55.53 56.50 57.59 59.16 59.44 59.43 59.19 64.76 64.38 64.63 73.36 74.65 75.49 75.10 74.79 74.02 73.12 73.39 71.90 72.15 72.73 72.64
40.76 36.97 30.33 33.33 41.29 45.17 41.85 39.78 39.98 33.55 31.51 34.79 33.69 33.02 47.08 45.94 46.89 43.99 49.98 50.18 51.09 55.28 55.43 55.94 57.04 57.74 59.09 60.41 60.88 63.16 64.13 63.29 71.17 74.09 75.17 74.99 75.07 72.56 71.41 69.34 68.99 64.50 71.37 72.63
41.09 35.23 29.16 31.54 38.72 41.45 37.35 39.36 40.35 39.53 39.07 33.78 31.62 35.14 47.77 47.12 46.43 47.76 49.41 50.45 50.65 54.08 54.24 55.30 55.89 57.08 58.09 59.35 61.02 61.17 64.46 64.60 63.42 72.20 73.94 74.64 72.66 72.49 67.73 65.14 65.61 64.51 63.25 68.80
42.97 36.03 32.95 27.87 31.53 36.10 34.43 36.85 39.14 38.63 33.32 34.87 36.08 38.39 43.47 44.27 42.42 44.51 49.83 50.76 51.63 51.22 54.27 54.29 55.04 55.45 55.48 57.40 59.47 61.45 62.40 63.29 64.20 67.38 72.24 72.96 71.25 70.76 67.86 66.34 65.72 65.46 64.92 61.86
40.93 34.26 35.81 36.73 37.43 37.75 37.02 36.99 38.42 37.22 38.31 34.27 36.76 36.88 39.75 42.88 42.85 45.67 49.16 50.84 50.56 52.44 52.98 55.11 56.10 57.55 58.90 60.41 59.24 61.61 62.53 62.62 63.41 63.60 67.52 71.93 70.12 70.03 68.30 66.13 64.90 64.57 63.20 62.55
41.26 33.98 35.30 33.36 38.54 38.89 37.05 38.20 38.04 36.39 36.36 35.77 36.22 34.74 41.82 42.00 43.44 43.81 45.93 47.06 48.10 50.93 52.74 54.62 55.84 56.06 57.30 59.49 60.08 60.70 64.33 63.05 64.24 63.15 64.52 70.19 68.98 68.34 66.75 64.98 64.05 62.44 62.45 63.11
37.94 36.08 34.06 30.68 36.90 37.18 34.49 32.90 34.63 35.05 35.83 34.77 31.07 35.52 38.97 38.07 38.76 39.70 42.67 44.87 47.14 48.04 49.98 50.57 53.41 54.86 56.87 58.68 59.96 60.24 62.45 64.60 63.25 64.53 64.03 69.89 70.95 70.92 69.43 66.69 65.73 65.39 65.38 66.28
39.25 38.46 34.54 32.24 35.14 28.89 34.07 38.07 37.29 35.00 35.71 36.27 35.84 36.58 36.97 36.30 37.91 40.17 40.92 41.26 42.60 44.08 46.26 47.90 50.33 51.91 53.82 56.37 58.18 60.84 62.43 63.24 63.23 63.80 66.00 69.44 70.93 71.29 70.52 69.92 68.77 68.30 67.77 66.16
44.89 37.18 32.13 31.59 30.35 34.81 34.69 36.26 33.80 32.35 33.20 37.50 35.47 36.03 36.27 37.48 38.86 38.82 39.07 40.93 42.39 43.64 45.72 47.49 47.60 48.67 51.05 52.47 55.21 57.82 59.93 61.34 63.90 67.78 68.80 69.22 69.03 70.87 69.55 66.77 65.32 65.03 63.57 62.45
43.83 40.65 34.03 32.93 28.92 29.02 31.66 36.99 40.12 39.43 30.92 38.09 36.82 35.65 34.92 36.23 30.62 33.48 37.92 39.70 41.06 44.10 45.93 46.34 47.65 48.53 49.82 52.37 55.54 58.03 59.50 60.82 64.04 66.66 68.08 68.85 67.68 67.76 64.90 63.66 62.80 62.52 61.92 59.90
37.75 36.93 33.69 33.20 31.56 34.84 36.46 37.71 39.78 29.25 30.70 37.57 38.34 36.94 35.54 32.91 33.23 37.20 38.70 39.59 42.04 43.70 44.28 45.30 46.16 46.85 48.57 51.48 55.10 56.59 60.05 62.37 61.42 62.17 63.35 64.24 64.54 62.89 62.15 62.13 61.56 60.34 58.52 57.14
34.96 33.93 32.69 33.59 31.27 28.79 38.51 37.05 30.73 35.69 39.18 39.09 37.89 37.46 36.61 36.99 37.98 37.87 39.16 38.83 40.99 41.91 42.85 43.65 43.61 45.95 49.45 51.67 56.31 55.89 56.17 58.18 58.64 58.61 58.68 59.02 60.43 60.54 60.52 59.98 59.09 57.77 56.66 54.21
35.87 37.84 34.29 34.00 34.95 40.14 39.76 37.38 39.47 41.05 38.46 38.10 37.59 39.10 38.89 38.49 38.13 39.21 38.91 39.06 40.27 41.28 42.04 42.71 42.42 43.80 47.79 49.43 51.39 51.04 52.58 54.90 55.34 55.13 55.19 55.69 56.01 57.26 57.62 56.72 55.67 53.57 53.71 53.14
41.65 43.38 38.71 37.87 39.80 40.05 38.25 39.26 39.93 40.78 39.34 39.08 39.83 40.93 41.82 39.49 39.23 39.59 40.69 40.09 40.20 40.51 41.28 41.99 41.21 41.48 42.62 47.82 48.53 50.19 51.34 52.88 53.00 52.41 52.81 53.38 53.13 53.16 54.01 54.34 54.03 53.69 53.25 52.53
42.83 42.31 39.25 39.39 40.27 39.01 39.62 38.54 39.54 39.97 40.52 40.36 41.63 41.80 40.94 41.15 40.72 41.04 41.52 40.82 41.50 40.71 41.21 41.63 40.66 40.43 41.70 43.82 46.06 48.58 49.73 50.46 50.36 50.52 49.86 49.05 45.68 44.07 42.18 41.69 46.27 49.15 44.20 51.63
44.37 41.00 37.49 36.50 38.26 37.09 37.39 38.71 40.55 39.34 39.26 39.93 39.39 38.74 40.94 41.76 42.80 42.61 42.36 42.11 42.08 42.04 41.51 41.14 41.12 41.27 41.35 43.23 43.85 44.68 47.12 47.42 46.76 46.55 46.33 46.19 45.43 45.84 44.00 42.15 39.89 38.29 39.30 39.64
MSLP
1004.29 1003.58 1002.96 1002.35 1002.42 1001.98 1002.22 1002.73 1001.91 1000.56 999.13 998.14 996.50 994.16 993.33 992.96 992.95 993.39 993.43 993.29 993.56 993.94 994.33 994.72 995.32 995.51 995.94 996.35 997.14 998.26 999.39 999.99 1001.38 1002.37 1003.36 1004.20 1004.43 1005.04 1005.26 1005.74 1006.38 1007.21 1007.84 1008.42
1004.59 1003.62 1003.02 1002.94 1002.93 1002.72 1002.99 1004.03 1003.00 1001.99 1000.56 999.17 997.74 995.73 994.19 993.43 992.57 993.16 993.05 993.27 993.72 994.24 994.14 994.11 994.48 995.00 995.36 996.10 996.85 997.61 998.60 999.98 1000.76 1001.62 1002.50 1003.36 1004.21 1004.56 1004.98 1005.28 1005.80 1006.64 1007.16 1007.56
1005.58 1005.02 1004.10 1003.50 1002.96 1002.61 1002.33 1002.28 1002.03 1002.11 1001.25 1000.38 1000.23 997.63 996.02 994.39 993.51 993.19 993.16 993.40 993.76 994.10 994.36 994.51 994.62 994.78 995.03 995.49 996.43 997.40 998.04 998.99 1000.22 1001.18 1002.16 1003.04 1003.84 1004.09 1004.67 1004.72 1005.27 1005.97 1006.53 1007.12
1005.28 1004.82 1004.26 1003.87 1003.27 1002.95 1002.44 1002.37 1002.39 1002.64 1002.50 1002.04 1000.86 998.65 997.12 995.74 994.02 993.56 993.53 993.77 993.98 994.17 994.41 994.73 994.82 994.79 995.10 995.31 995.78 996.98 997.55 998.46 999.29 1000.64 1001.53 1002.31 1002.80 1003.14 1003.55 1003.94 1004.49 1005.22 1005.96 1006.62
1004.84 1004.63 1004.38 1003.79 1003.38 1003.11 1003.05 1002.84 1002.60 1002.44 1002.38 1002.20 1001.23 999.82 997.49 996.18 994.24 993.02 992.90 993.25 993.48 993.73 994.04 994.16 994.47 994.61 994.63 995.13 995.80 996.47 997.36 998.06 998.98 999.74 1000.78 1001.75 1002.20 1002.74 1002.83 1003.38 1004.22 1004.72 1005.42 1006.02
1004.86 1004.66 1004.93 1004.61 1004.10 1003.66 1003.63 1003.43 1003.09 1002.43 1002.00 1001.44 1000.66 1000.13 997.72 996.29 994.11 992.83 992.27 991.99 991.94 992.09 992.57 993.09 993.64 994.03 994.16 994.29 994.94 995.92 996.53 997.39 998.40 999.20 1000.17 1000.86 1001.44 1001.74 1002.18 1002.80 1003.44 1004.19 1004.76 1005.25
1006.12 1004.88 1005.01 1004.98 1004.42 1004.11 1004.05 1005.15 1004.47 1003.16 1001.68 1000.82 1000.23 999.31 997.80 996.20 994.42 993.03 992.22 991.46 991.02 991.07 991.40 991.58 992.27 993.00 993.42 993.57 993.88 994.67 995.66 997.01 997.84 998.66 999.74 1000.17 1000.42 1000.87 1001.36 1001.84 1002.30 1003.04 1003.61 1004.41
1007.51 1006.00 1005.99 1005.92 1005.17 1004.15 1004.54 1004.14 1005.36 1004.43 1002.76 1001.16 999.38 998.25 996.29 995.92 994.54 993.20 992.17 991.26 990.51 990.10 990.34 990.63 991.06 991.71 992.17 992.74 993.04 993.72 994.80 995.93 996.91 997.88 998.75 999.54 1000.01 1000.18 1000.34 1000.80 1001.22 1001.98 1002.86 1003.98
1009.52 1007.88 1006.73 1005.72 1004.79 1004.59 1004.28 1004.76 1005.28 1005.99 1004.86 1002.87 1000.10 998.21 996.95 995.70 994.60 993.72 992.54 991.05 990.48 990.45 990.11 990.42 990.45 990.82 991.22 991.48 992.00 992.72 993.88 994.90 995.84 996.80 997.72 998.72 999.40 999.56 999.68 1000.02 1000.88 1002.06 1002.58 1003.47
1011.34 1009.90 1007.48 1005.96 1005.46 1004.88 1004.57 1004.86 1005.06 1004.92 1003.98 1002.00 999.42 998.26 997.76 997.17 995.13 994.30 993.28 991.34 990.94 990.69 990.66 990.76 991.02 990.80 990.73 990.85 991.14 991.72 992.61 993.47 994.68 995.72 996.68 997.59 998.39 998.72 999.10 1000.01 1000.72 1001.52 1001.92 1002.45
1011.66 1011.71 1008.89 1007.72 1006.22 1005.92 1004.88 1004.74 1004.83 1005.04 1005.12 1003.41 1001.40 1000.45 1000.87 999.65 998.48 997.42 995.59 993.94 991.82 991.84 991.62 991.70 991.64 991.40 990.53 990.60 990.64 991.04 991.81 992.63 993.40 994.66 995.65 996.70 997.55 998.20 999.12 999.73 1000.60 1001.32 1001.80 1002.35
1012.20 1012.02 1010.43 1008.58 1006.47 1005.14 1006.14 1005.48 1005.22 1005.24 1004.16 1003.12 1002.04 1000.44 999.76 1000.32 1000.63 999.53 998.14 996.63 994.84 993.43 992.99 992.78 992.29 992.60 991.79 990.78 990.77 991.06 991.30 991.73 992.42 993.58 994.74 995.92 997.01 998.08 998.91 1000.11 1001.42 1002.90 1002.93 1002.82
1012.92 1012.39 1011.12 1008.53 1007.51 1007.28 1006.92 1006.29 1006.21 1006.18 1005.18 1003.46 1002.10 1000.00 999.22 999.36 999.89 1000.44 998.86 997.84 997.29 994.78 994.26 994.10 993.84 993.59 993.15 992.41 991.44 991.42 991.56 991.59 992.09 992.79 993.76 995.24 996.64 997.91 999.48 1000.66 1001.55 1002.62 1004.92 1005.47
1012.74 1013.02 1012.49 1011.12 1009.47 1009.06 1008.08 1007.34 1006.50 1005.99 1005.54 1003.18 1002.18 1000.78 1000.09 1001.18 1001.58 1001.30 999.64 999.13 998.03 996.92 995.49 994.70 994.65 994.76 995.56 994.34 993.36 992.02 991.78 991.55 992.01 992.32 993.00 994.51 995.97 997.40 998.59 999.84 1000.96 1002.01 1001.77 1002.49
1013.12 1012.77 1011.81 1010.50 1009.42 1008.73 1008.24 1007.74 1007.15 1006.71 1005.68 1004.90 1003.46 1002.98 1003.37 1002.96 1003.71 1002.33 1000.72 999.53 999.20 997.64 997.20 995.73 995.12 995.43 995.47 995.52 995.19 993.04 992.20 992.12 991.51 991.81 992.40 993.37 995.17 996.57 997.57 998.52 999.33 999.85 1000.72 1003.26
1012.56 1012.32 1011.55 1010.07 1008.54 1007.82 1007.44 1008.26 1008.55 1008.58 1007.80 1007.15 1006.47 1004.28 1004.76 1005.01 1004.68 1004.14 1002.49 1001.32 999.92 999.30 998.46 997.06 996.31 996.17 995.44 995.05 995.83 995.00 993.17 992.77 992.14 991.61 992.15 993.19 994.35 995.82 996.77 998.14 999.03 999.66 1001.04 1002.56
1012.57 1012.37 1011.66 1009.63 1008.31 1007.56 1008.68 1010.39 1010.50 1010.30 1009.92 1009.72 1008.57 1007.51 1006.68 1005.66 1005.47 1004.98 1004.05 1003.32 1002.36 1001.51 1000.17 999.01 998.11 997.80 997.36 996.25 995.87 996.22 994.92 993.19 992.60 991.87 991.69 992.46 993.00 994.71 995.91 997.20 998.67 1000.29 1001.01 1002.28
1011.82 1011.91 1012.04 1010.44 1009.17 1008.63 1010.52 1010.97 1011.18 1010.82 1010.24 1010.22 1009.87 1009.17 1008.60 1007.83 1006.82 1006.16 1005.44 1004.40 1003.28 1002.48 1001.50 1000.78 1000.20 999.92 999.32 997.95 996.76 996.12 994.50 993.84 993.47 992.18 991.45 992.10 992.19 993.28 995.23 996.50 997.77 999.19 1000.97 1002.76
1010.90 1012.16 1012.16 1011.19 1010.44 1009.91 1010.89 1011.50 1011.27 1011.00 1010.67 1010.88 1010.70 1010.26 1009.68 1008.80 1007.56 1006.59 1006.53 1005.52 1004.39 1003.61 1002.82 1002.17 1001.88 1001.35 1000.32 999.25 997.72 996.97 995.26 994.24 993.80 991.49 991.67 991.97 992.82 992.29 994.71 996.71 997.92 999.61 1000.80 1002.31
1010.71 1011.96 1012.62 1011.91 1011.17 1010.73 1012.38 1011.79 1010.56 1010.43 1010.82 1011.14 1011.04 1010.65 1010.06 1009.18 1008.19 1007.73 1007.10 1006.14 1005.12 1004.07 1003.36 1002.69 1001.99 1001.24 1000.34 999.24 998.03 997.06 995.97 995.08 994.02 993.46 993.10 993.22 994.43 992.66 995.34 997.11 998.37 999.81 1001.35 1003.12
1010.40 1011.31 1011.76 1011.60 1011.63 1011.56 1012.68 1012.24 1010.72 1011.00 1012.66 1011.81 1011.57 1011.27 1010.74 1010.18 1009.94 1008.68 1007.57 1006.28 1005.16 1004.00 1003.27 1002.61 1001.82 1001.04 1000.09 999.13 998.08 997.24 996.30 995.41 995.15 995.08 995.02 995.20 996.34 994.59 996.62 998.20 999.70 1000.88 1002.66 1004.42
1011.17 1011.52 1011.81 1012.07 1011.88 1012.35 1013.05 1013.22 1013.58 1013.90 1013.01 1012.61 1012.22 1011.87 1011.17 1010.55 1009.67 1008.78 1007.71 1006.56 1005.31 1004.22 1003.43 1002.70 1001.83 1000.88 999.76 998.60 997.25 996.96 996.90 996.66 996.07 996.44 996.11 996.50 997.44 997.68 998.32 999.74 1000.97 1002.58 1004.23 1005.73
1010.87 1011.96 1012.86 1013.13 1012.70 1013.41 1014.12 1014.58 1014.42 1013.85 1013.44 1013.17 1012.79 1012.10 1011.30 1010.57 1009.67 1008.74 1007.98 1006.91 1005.84 1004.76 1003.93 1003.22 1002.43 1001.29 1000.10 999.19 998.44 998.12 998.12 997.95 997.38 997.57 997.78 998.05 998.47 999.14 1000.07 1000.65 1002.22 1004.09 1005.67 1006.86
1010.76 1011.43 1011.77 1012.27 1012.64 1013.31 1014.15 1014.63 1014.49 1014.04 1013.77 1013.65 1013.02 1012.00 1011.10 1010.58 1009.88 1008.88 1008.16 1007.28 1006.49 1005.58 1004.69 1004.03 1003.06 1002.04 1001.22 1000.52 999.94 999.53 999.29 999.12 999.08 999.11 999.50 999.94 1000.11 1001.10 1001.90 1002.82 1003.74 1004.88 1005.77 1006.80
1011.22 1011.51 1011.44 1011.53 1012.66 1013.48 1013.99 1014.61 1014.49 1014.21 1013.99 1013.60 1012.98 1012.16 1011.28 1010.48 1009.76 1009.06 1008.36 1007.78 1006.94 1006.35 1005.59 1004.80 1004.06 1003.40 1002.72 1002.09 1001.47 1001.07 1000.78 1000.50 1000.50 1000.76 1001.40 1001.97 1002.70 1003.26 1004.17 1005.10 1005.61 1006.02 1006.57 1006.53
1010.70 1010.84 1011.33 1012.18 1013.44 1014.08 1014.21 1014.49 1014.41 1014.25 1014.13 1013.82 1013.36 1012.61 1011.66 1010.70 1009.68 1009.31 1008.68 1008.43 1007.78 1007.08 1006.70 1005.86 1005.35 1004.78 1004.28 1003.50 1003.21 1002.86 1002.58 1002.52 1002.51 1002.75 1003.10 1003.71 1003.99 1004.92 1005.68 1006.52 1007.72 1008.36 1007.80 1008.10
Wind_Speed
19 16 18 21 22 24 16 23 28 27 30 29 29 27 27 22 22 17 22 14 15 13 17 21 18 17 17 14 18 17 10 19 16 13 13 11 10 10 8 9 13 16 13 11
18 19 21 24 23 19 11 13 19 26 28 25 26 28 23 21 16 22 22 14 12 16 13 9 16 14 11 9 13 14 19 17 17 13 14 11 10 11 9 9 10 16 16 13
19 23 23 21 21 21 21 19 19 20 25 26 25 23 26 25 21 18 16 14 12 16 14 13 11 10 10 12 8 19 19 20 19 17 13 10 10 8 11 9 10 14 15 13
14 17 19 19 21 18 23 22 19 18 16 15 21 18 23 24 23 22 19 17 18 19 15 15 15 13 9 9 9 11 17 19 18 19 15 18 12 13 12 10 11 11 15 14
17 17 20 16 21 18 20 22 22 22 21 10 22 14 17 22 25 21 23 23 23 22 22 20 22 18 15 11 8 9 18 18 19 19 17 16 15 12 10 11 11 12 11 14
20 15 7 18 20 16 21 19 23 23 17 15 21 16 18 22 23 20 21 21 25 27 27 24 20 20 17 17 17 14 21 20 19 19 19 20 20 14 12 14 13 13 12 12
23 20 12 6 13 13 22 8 7 8 12 14 21 17 20 21 27 24 22 22 20 17 18 19 25 22 20 20 18 17 16 22 21 21 21 20 20 18 19 17 15 17 14 13
16 19 11 16 21 16 20 9 4 8 9 14 18 7 16 22 25 24 24 21 20 19 18 19 18 21 22 22 19 19 17 22 21 22 22 20 19 15 13 16 14 14 13 12
14 12 27 26 9 14 12 17 5 5 9 15 13 18 21 20 24 22 21 22 11 16 8 10 11 15 17 19 19 19 21 23 22 22 20 21 18 19 17 14 10 11 11 12
10 16 14 16 23 15 9 10 6 5 8 12 14 16 4 21 16 9 15 12 11 10 11 9 11 12 13 15 14 20 20 18 24 22 19 18 22 21 17 9 12 15 12 18
15 4 14 23 14 17 11 6 4 5 2 7 7 5 5 18 19 11 16 22 3 5 8 13 8 14 8 13 13 11 18 18 21 21 19 19 19 19 18 11 10 8 11 16
9 6 11 24 25 4 5 10 14 4 8 12 11 9 1 6 18 23 16 12 22 10 12 12 12 16 18 7 7 5 15 19 17 18 19 18 17 14 13 6 6 16 6 13
7 3 9 11 2 6 15 22 15 12 10 14 12 9 3 7 7 13 15 13 9 12 5 5 8 8 18 17 8 9 6 8 14 18 18 16 13 15 13 12 9 8 6 14
4 4 9 12 20 17 17 23 22 11 5 17 17 20 25 18 19 24 19 15 12 16 18 7 7 8 14 14 18 10 11 11 10 9 19 18 16 16 16 16 16 16 13 10
3 6 14 20 21 22 21 23 19 18 17 15 18 21 24 23 15 22 24 14 17 11 15 13 9 10 10 6 16 18 9 9 12 14 11 21 17 16 16 16 18 22 20 15
1 6 17 19 16 19 12 13 12 16 17 20 24 33 18 23 21 18 21 18 22 17 17 15 11 14 18 14 9 20 12 12 10 12 9 19 20 19 18 14 15 15 16 22
3 4 5 9 21 19 5 8 7 13 16 16 14 18 23 23 21 19 19 16 13 13 17 15 14 14 15 16 13 5 20 12 15 12 10 18 20 17 16 16 20 24 26 18
8 12 2 9 14 4 4 7 15 15 14 9 13 17 18 18 17 12 14 12 13 14 15 14 13 15 17 18 16 13 18 14 16 15 8 16 21 21 17 17 17 15 16 15
7 1 4 5 8 8 4 10 17 13 7 9 10 12 14 17 16 3 15 15 12 12 11 11 12 14 15 17 17 16 18 18 18 8 8 14 14 21 19 16 17 15 17 15
8 5 1 4 6 4 5 21 25 10 3 20 12 11 13 14 8 6 15 14 15 13 8 11 12 13 14 15 14 15 16 18 17 8 5 8 9 14 19 19 18 15 17 15
7 6 4 6 4 3 11 18 21 7 10 20 14 13 13 7 7 10 14 15 12 11 10 10 10 10 11 12 14 14 16 6 6 8 7 12 18 14 15 17 17 17 17 17
2 6 5 5 5 3 17 7 6 8 9 11 11 12 11 11 11 13 14 16 14 12 10 11 9 9 7 7 1 7 6 5 10 10 11 13 13 13 15 17 15 16 17 18
2 1 2 4 3 4 6 6 9 10 8 10 10 11 12 14 15 12 13 16 14 14 11 11 9 9 10 10 8 8 6 6 12 13 14 13 14 13 13 16 17 15 15 15
5 4 4 5 4 7 4 7 10 8 7 8 9 11 10 11 14 16 12 14 13 14 12 11 12 14 14 11 12 10 8 9 13 16 15 13 16 15 14 11 12 12 11 11
6 7 8 8 5 9 5 7 10 8 8 8 12 14 13 13 12 15 11 16 15 15 14 13 13 13 15 15 14 13 11 10 13 14 14 14 12 14 13 13 8 7 6 7
4 4 4 3 3 2 3 5 8 6 7 9 10 12 14 15 13 14 12 13 15 16 16 14 14 14 14 17 16 15 13 11 12 12 11 10 11 11 11 12 14 24 24 24
Wind_Direction
313 298 288 276 289 303 258 304 307 307 297 299 301 251 251 241 225 241 244 248 212 230 230 222 228 221 222 192 183 167 174 156 164 171 178 190 193 186 188 180 163 171 181 190
308 304 320 325 314 293 273 257 268 295 302 298 311 304 284 291 234 225 240 232 236 245 254 264 211 228 215 171 176 176 173 162 170 174 179 185 199 181 204 178 160 171 181 183
318 303 308 306 298 294 281 286 304 291 287 300 295 285 294 267 275 269 270 274 255 229 239 256 250 254 222 189 181 189 176 176 172 179 175 183 186 184 194 188 170 178 181 184
294 296 295 290 291 295 292 312 310 297 301 286 301 294 273 277 255 244 247 256 267 267 252 254 262 237 242 190 181 195 188 177 176 179 175 187 195 203 188 196 178 177 177 188
312 300 295 309 296 298 295 295 290 287 284 274 284 267 266 261 264 253 226 230 237 241 245 231 242 251 227 201 210 211 187 181 188 177 183 188 197 197 180 188 160 179 180 184
334 338 12 277 310 315 313 319 306 285 264 259 257 264 271 271 266 250 250 241 226 222 224 230 220 233 243 210 198 214 185 187 186 186 190 190 196 195 191 186 181 187 187 186
322 330 14 322 328 303 290 286 294 267 248 246 251 242 248 278 266 264 267 261 249 233 238 223 211 222 227 231 200 203 202 186 189 188 196 195 196 206 194 191 196 186 188 191
345 320 53 314 297 310 306 336 274 303 254 276 269 262 258 229 263 267 275 263 257 227 223 224 218 213 216 224 216 193 207 184 188 191 194 202 205 203 202 195 200 187 182 178
322 295 320 302 347 325 303 296 247 264 283 270 253 244 247 268 261 262 287 252 273 262 224 261 237 214 230 216 213 196 195 185 191 191 192 197 203 210 210 200 189 178 167 171
316 297 303 303 324 315 292 316 302 281 286 267 259 262 350 344 312 276 263 276 232 244 256 235 260 270 231 230 216 192 190 198 186 190 190 196 203 209 203 193 182 183 169 176
321 276 292 303 311 302 308 292 291 244 158 291 338 339 290 287 323 333 13 331 24 52 31 12 332 318 267 236 230 195 189 202 184 189 188 192 203 208 199 206 175 192 179 172
322 276 290 291 298 342 345 309 315 275 302 294 281 276 87 223 12 357 335 1 348 38 31 5 358 343 322 282 261 273 197 195 190 189 186 193 195 197 199 168 81 30 256 183
335 265 305 302 13 310 338 322 324 314 293 277 292 290 84 4 30 283 292 347 329 338 16 3 334 319 317 317 263 264 258 219 217 189 185 183 172 185 162 165 131 96 32 317
181 238 251 273 284 295 294 304 305 290 266 297 288 315 328 25 11 311 332 342 329 333 314 318 317 299 297 315 320 272 272 215 229 226 194 174 174 173 172 184 185 178 232 328
143 267 285 289 289 288 276 277 295 310 313 305 315 309 325 324 360 315 314 328 323 309 305 322 327 332 321 351 327 305 298 311 206 247 218 180 171 172 174 185 182 177 165 205
204 267 303 294 304 312 308 19 12 357 336 322 320 308 342 327 323 318 314 332 320 313 301 332 340 324 317 320 344 327 331 325 301 229 240 169 169 179 197 182 184 169 195 213
281 274 295 288 323 317 99 36 5 312 309 312 305 304 317 317 322 321 308 303 310 323 339 348 336 320 309 310 320 326 299 320 314 255 223 168 151 172 178 177 172 178 192 192
244 277 322 290 321 354 115 355 345 309 300 302 278 294 319 318 307 303 357 342 336 334 328 327 321 307 301 305 310 316 297 303 306 284 208 161 165 160 162 167 166 148 154 154
234 84 289 306 308 262 36 351 337 335 343 2 315 312 317 317 317 31 346 339 330 307 302 301 290 283 290 288 293 295 295 294 288 310 129 156 207 141 147 140 128 128 119 117
95 131 198 304 302 330 345 337 329 315 219 359 345 330 330 325 340 330 329 336 324 317 304 299 294 289 282 281 280 276 276 284 287 24 59 136 118 116 122 123 115 116 114 114
356 347 290 305 285 102 357 345 321 18 324 330 354 356 351 346 323 315 326 327 328 327 334 327 309 292 283 278 269 257 256 186 97 83 87 98 116 99 106 111 112 117 112 112
36 328 345 318 277 323 21 353 26 313 314 352 3 358 340 336 338 337 341 344 347 347 353 348 331 309 321 321 32 81 72 97 99 89 86 88 102 114 112 113 108 110 120 115
331 61 267 231 293 22 29 338 317 330 354 12 0 348 345 1 349 343 360 352 8 0 8 359 353 2 23 21 35 71 62 97 100 98 90 83 85 92 100 108 113 112 123 127
324 35 261 280 155 343 46 360 343 8 19 16 344 345 3 17 359 355 13 6 24 15 17 11 16 27 28 32 41 44 58 89 97 99 97 94 94 89 90 97 105 119 124 134
281 336 303 284 43 327 81 6 344 12 11 0 346 360 360 354 18 7 25 16 23 26 19 24 27 29 33 33 39 42 46 70 89 90 91 88 76 78 74 58 46 80 19 117
194 327 322 296 107 241 295 342 348 18 14 7 3 352 353 349 7 28 22 30 21 24 29 30 32 34 34 42 38 37 41 56 76 84 82 86 91 90 88 87 78 54 67 70